Total_Precipitation_Accumulation
0.42 0.42 0.42 0.42 0.35 0.32 0.42 0.53 0.82 1.12 1.47 1.79 1.85 1.87 1.92 2.05 1.98 1.76 1.59 1.42 1.28 1.26 1.34 1.32 1.29 1.28 1.30 1.44 1.50 1.71 1.77 1.71 1.67 1.62 1.59 1.58 1.51 1.34 1.18 1.07 1.02 1.08 1.01 0.96
0.43 0.37 0.45 0.44 0.43 0.45 0.53 0.64 0.86 1.19 1.63 1.85 1.86 1.81 1.87 1.97 1.94 1.75 1.46 1.31 1.24 1.24 1.32 1.29 1.25 1.20 1.17 1.27 1.32 1.46 1.60 1.58 1.50 1.47 1.52 1.48 1.45 1.33 1.22 1.12 1.06 1.07 1.02 0.93
0.63 0.41 0.62 0.90 0.68 0.69 0.79 0.82 1.01 1.39 1.59 1.65 1.74 1.75 1.79 1.90 1.98 1.85 1.59 1.49 1.51 1.54 1.53 1.41 1.29 1.23 1.24 1.30 1.34 1.41 1.47 1.41 1.41 1.41 1.37 1.34 1.22 1.13 1.16 1.18 1.08 1.02 0.93 0.82
0.63 0.77 1.26 1.14 0.63 0.71 0.85 0.88 0.92 1.05 1.18 1.34 1.46 1.54 1.68 1.86 2.01 1.97 1.84 1.80 1.82 1.77 1.63 1.48 1.36 1.32 1.31 1.29 1.36 1.44 1.41 1.34 1.27 1.28 1.24 1.19 1.15 1.10 1.10 1.09 1.03 1.00 0.91 0.80
0.85 1.17 1.37 1.10 0.66 0.64 0.95 1.12 0.89 0.89 0.92 0.95 0.98 1.17 1.55 1.70 1.79 1.83 1.84 1.79 1.70 1.64 1.55 1.45 1.34 1.29 1.24 1.24 1.23 1.24 1.21 1.17 1.08 1.10 1.16 1.16 1.14 1.15 1.10 1.01 0.97 0.92 0.86 0.79
0.96 1.31 1.61 1.34 0.63 0.45 0.80 1.49 1.03 0.88 0.93 0.97 1.09 1.35 1.43 1.35 1.35 1.40 1.43 1.46 1.48 1.47 1.40 1.31 1.23 1.13 1.10 1.13 1.13 1.10 1.08 1.07 0.98 0.99 1.05 1.11 1.12 1.11 0.99 0.90 0.87 0.78 0.76 0.77
0.98 1.28 1.46 0.83 0.49 0.63 1.35 1.72 1.14 0.96 0.99 1.11 1.25 1.25 1.04 0.96 1.02 1.11 1.22 1.27 1.28 1.39 1.41 1.25 1.05 0.98 1.03 1.02 1.02 0.91 0.89 0.96 0.98 0.96 0.98 0.97 0.98 1.00 0.93 0.83 0.80 0.77 0.77 0.78
1.08 1.46 1.60 0.71 0.55 0.98 1.19 0.93 0.88 0.91 0.93 0.95 0.91 0.78 0.76 0.79 0.82 0.85 1.01 1.14 1.14 1.27 1.22 1.04 0.91 0.94 1.00 0.97 0.87 0.82 0.89 1.00 1.00 0.97 0.87 0.85 0.96 0.99 0.90 0.82 0.77 0.77 0.76 0.75
1.13 1.36 1.07 0.59 0.57 0.64 0.63 0.68 0.69 0.70 0.66 0.62 0.63 0.61 0.60 0.69 0.76 0.80 0.89 0.99 1.00 1.05 1.04 0.98 0.93 0.98 1.01 0.95 0.83 0.86 0.94 1.00 1.01 0.94 0.90 0.89 0.91 0.92 0.85 0.80 0.72 0.71 0.71 0.70
0.70 0.74 0.54 0.47 0.43 0.41 0.44 0.53 0.55 0.58 0.63 0.55 0.58 0.60 0.60 0.64 0.72 0.82 0.87 0.88 0.88 0.94 0.95 0.92 0.87 0.87 0.87 0.79 0.77 0.87 0.96 0.94 0.94 0.96 0.95 0.88 0.81 0.76 0.74 0.70 0.65 0.62 0.63 0.62
0.65 0.54 0.46 0.45 0.38 0.33 0.36 0.39 0.44 0.51 0.60 0.60 0.59 0.66 0.65 0.66 0.73 0.78 0.84 0.84 0.87 0.93 0.95 0.84 0.79 0.75 0.73 0.74 0.79 0.89 0.89 0.83 0.82 0.86 0.85 0.81 0.69 0.61 0.57 0.50 0.43 0.42 0.44 0.46
0.66 0.51 0.53 0.48 0.34 0.32 0.38 0.42 0.43 0.49 0.60 0.57 0.56 0.64 0.71 0.73 0.70 0.70 0.76 0.78 0.82 0.82 0.82 0.77 0.69 0.65 0.68 0.70 0.70 0.79 0.79 0.73 0.70 0.73 0.73 0.67 0.62 0.55 0.47 0.35 0.30 0.28 0.27 0.29
0.38 0.34 0.33 0.32 0.33 0.40 0.46 0.46 0.50 0.55 0.52 0.47 0.52 0.59 0.69 0.73 0.63 0.60 0.63 0.66 0.73 0.73 0.72 0.69 0.64 0.66 0.68 0.60 0.60 0.67 0.71 0.68 0.61 0.59 0.63 0.61 0.55 0.54 0.54 0.41 0.31 0.28 0.26 0.28
0.32 0.37 0.43 0.46 0.52 0.51 0.49 0.43 0.43 0.42 0.41 0.40 0.46 0.53 0.58 0.61 0.53 0.52 0.59 0.59 0.58 0.62 0.64 0.63 0.62 0.59 0.54 0.51 0.55 0.60 0.58 0.53 0.50 0.51 0.50 0.47 0.45 0.44 0.45 0.52 0.52 0.44 0.33 0.29
0.37 0.41 0.48 0.45 0.44 0.40 0.36 0.33 0.34 0.35 0.36 0.40 0.40 0.43 0.46 0.49 0.48 0.45 0.47 0.47 0.48 0.54 0.56 0.52 0.49 0.51 0.49 0.47 0.49 0.51 0.45 0.41 0.39 0.37 0.37 0.38 0.39 0.36 0.37 0.41 0.46 0.47 0.44 0.36
0.30 0.29 0.31 0.32 0.32 0.30 0.29 0.30 0.30 0.31 0.32 0.35 0.36 0.36 0.37 0.36 0.35 0.32 0.33 0.38 0.52 0.60 0.54 0.46 0.42 0.43 0.43 0.45 0.49 0.47 0.41 0.35 0.31 0.28 0.28 0.29 0.30 0.32 0.34 0.34 0.35 0.40 0.40 0.35
0.30 0.31 0.30 0.26 0.23 0.23 0.23 0.22 0.21 0.23 0.25 0.28 0.29 0.25 0.25 0.25 0.28 0.29 0.32 0.38 0.45 0.48 0.45 0.42 0.37 0.31 0.34 0.40 0.44 0.39 0.31 0.28 0.23 0.21 0.23 0.25 0.25 0.26 0.28 0.27 0.32 0.35 0.30 0.26
0.29 0.25 0.22 0.21 0.18 0.18 0.18 0.16 0.16 0.20 0.22 0.22 0.21 0.21 0.21 0.24 0.28 0.28 0.31 0.36 0.39 0.38 0.34 0.29 0.29 0.27 0.25 0.29 0.35 0.33 0.28 0.28 0.21 0.19 0.20 0.23 0.25 0.25 0.23 0.24 0.26 0.26 0.25 0.23
0.20 0.14 0.13 0.14 0.14 0.14 0.15 0.14 0.15 0.17 0.17 0.18 0.18 0.18 0.19 0.21 0.22 0.24 0.27 0.35 0.39 0.40 0.33 0.24 0.23 0.22 0.19 0.20 0.26 0.26 0.24 0.24 0.22 0.20 0.21 0.22 0.23 0.25 0.21 0.18 0.20 0.21 0.21 0.21
0.15 0.10 0.11 0.12 0.11 0.12 0.14 0.13 0.15 0.15 0.15 0.15 0.15 0.16 0.19 0.19 0.16 0.19 0.27 0.35 0.39 0.34 0.27 0.23 0.18 0.16 0.15 0.15 0.19 0.21 0.21 0.21 0.19 0.18 0.20 0.21 0.23 0.21 0.18 0.17 0.19 0.22 0.23 0.24
0.13 0.11 0.11 0.12 0.11 0.11 0.13 0.13 0.14 0.14 0.14 0.14 0.16 0.16 0.17 0.17 0.14 0.19 0.28 0.36 0.33 0.26 0.22 0.20 0.18 0.15 0.14 0.15 0.17 0.20 0.20 0.19 0.16 0.16 0.19 0.21 0.21 0.17 0.15 0.17 0.17 0.20 0.23 0.25
0.12 0.12 0.14 0.13 0.13 0.13 0.14 0.14 0.15 0.16 0.16 0.17 0.16 0.14 0.16 0.18 0.17 0.20 0.25 0.27 0.23 0.18 0.16 0.16 0.15 0.14 0.15 0.15 0.14 0.15 0.17 0.18 0.18 0.20 0.20 0.17 0.15 0.14 0.13 0.15 0.18 0.19 0.20 0.22
0.14 0.14 0.15 0.15 0.14 0.14 0.13 0.16 0.19 0.18 0.16 0.15 0.14 0.14 0.16 0.19 0.19 0.20 0.21 0.17 0.14 0.13 0.14 0.14 0.13 0.13 0.12 0.11 0.11 0.14 0.15 0.16 0.15 0.16 0.16 0.16 0.14 0.14 0.15 0.16 0.18 0.19 0.20 0.20
0.19 0.18 0.15 0.13 0.14 0.17 0.17 0.17 0.17 0.17 0.15 0.12 0.11 0.12 0.14 0.16 0.18 0.18 0.18 0.16 0.15 0.13 0.11 0.12 0.12 0.11 0.10 0.09 0.11 0.13 0.15 0.14 0.11 0.12 0.13 0.13 0.14 0.14 0.15 0.16 0.16 0.17 0.17 0.16
0.25 0.23 0.20 0.18 0.19 0.22 0.19 0.17 0.15 0.13 0.11 0.10 0.09 0.10 0.11 0.13 0.14 0.16 0.18 0.18 0.17 0.15 0.11 0.10 0.09 0.09 0.10 0.11 0.13 0.14 0.13 0.11 0.10 0.10 0.09 0.11 0.11 0.10 0.11 0.13 0.14 0.14 0.13 0.13
0.32 0.28 0.25 0.25 0.23 0.21 0.19 0.20 0.18 0.15 0.13 0.12 0.11 0.11 0.11 0.14 0.16 0.18 0.19 0.18 0.18 0.14 0.10 0.09 0.09 0.10 0.12 0.13 0.12 0.11 0.11 0.10 0.09 0.08 0.08 0.10 0.10 0.10 0.11 0.13 0.12 0.12 0.13 0.13
0.44 0.35 0.31 0.28 0.23 0.19 0.20 0.23 0.21 0.17 0.14 0.14 0.14 0.13 0.14 0.16 0.17 0.17 0.17 0.17 0.17 0.13 0.10 0.09 0.09 0.10 0.11 0.12 0.11 0.11 0.12 0.11 0.09 0.09 0.10 0.10 0.12 0.13 0.14 0.13 0.12 0.13 0.15 0.14